sat.trackr.live / text

‹ back to catalog

STARLINK-5248

NORAD 54174 · 2022-141T

PAYLOAD ACTIVE UNKNOWN

§ Identity

Operator
Country
US
Launch date
2022-10-28
Launch site
AFWTR
Launch vehicle
Mass (kg)
RCS (m²)

Purposes: comms

External: N2YO · Heavens-Above · Gunter

§ Orbital elements

Epoch: 2026-05-25T04:54:25.310304Z

Period
95.44 min
Inclination
53.2128°
Eccentricity
0.0001516
Mean motion
15.08835443 rev/d
Perigee alt
538.7 km
Apogee alt
540.8 km
Semi-major
6,917.9 km
B*
3.6216e-5
RAAN
325.3736°
Arg perigee
92.1047°
Mean anomaly
268.0119°
Rev number
19,818

§ Raw data

STARLINK-52481 54174U 22141T   26145.20445961  .00000288  00000+0  36216-4 0  99992 54174  53.2128 325.3736 0001516  92.1047 268.0119 15.08835443198184

JSON: /api/v1/satellites/54174 · /tle

For live sub-satellite position, see the globe view (requires WebGL).

§ Visibility from observer

Set your observer location to see the next 7 days of passes ≥ 10°. The values pass through the URL so the page stays shareable.

No JS? Fill the form by hand. The geolocation button needs JavaScript.